1514898000.05,13128,7.0,72346.0,-5.91,-18.41,-20.43,0,*5D
1514898001.28,13129,7.0,72350.3,-5.91,-18.65,-20.79,0,*53
1514898002.54,13130,7.0,72348.3,-5.91,-18.59,-20.79,0,*54
1514898003.8,13131,7.0,72350.0,-5.89,-18.73,-20.99,0,*5A
1514898005.01,13132,7.0,72350.3,-5.91,-18.73,-20.93,0,*5A
1514898006.27,13133,7.0,72346.0,-5.91,-18.59,-20.79,0,*57
1514898007.51,13134,7.0,72346.0,-5.91,-18.55,-20.59,0,*5E
1514898008.74,13135,7.06,72348.8,-5.91,-18.59,-20.69,0,*50
1514898010.03,13136,7.0,72344.8,-5.93,-18.35,-20.49,0,*59
1514898011.3,13137,7.06,72350.3,-5.93,-18.49,-20.49,0,*53
1514898012.54,13138,7.0,72344.0,-5.93,-18.45,-20.63,0,*58
1514898013.76,13139,7.0,72344.3,-5.91,-18.45,-20.59,0,*52
1514898015.0,13140,7.0,72344.5,-5.91,-18.55,-20.59,0,*5D
1514898016.24,13141,7.06,72348.3,-5.91,-18.55,-20.59,0,*5C
1514898017.47,13142,7.0,72346.5,-5.91,-18.69,-20.79,0,*52
1514898018.74,13143,7.06,72348.0,-5.89,-18.41,-20.53,0,*58
1514898019.98,13144,7.06,72348.8,-5.91,-18.55,-20.59,0,*59
1514898021.2,13145,7.0,72346.3,-5.91,-18.45,-20.43,0,*52
1514898022.41,13146,7.0,72346.8,-5.91,-18.45,-20.43,0,*51
1514898023.63,13147,7.0,72346.8,-5.91,-18.41,-20.43,0,*54
1514898024.89,13148,7.06,72350.3,-5.93,-18.21,-20.35,0,*5E
1514898026.1,13149,7.0,72348.5,-5.91,-18.25,-20.25,0,*58
1514898027.31,13150,7.0,72344.5,-5.91,-18.25,-20.29,0,*5C
1514898028.58,13151,7.0,72346.5,-5.93,-18.21,-20.19,0,*58
1514898029.81,13152,7.0,72346.0,-5.91,-18.17,-20.15,0,*50
1514898031.04,13153,7.0,72346.5,-5.89,-18.07,-20.09,0,*54
1514898032.28,13154,7.0,72346.5,-5.89,-18.21,-20.25,0,*59
1514898033.52,13155,7.06,72348.5,-5.87,-18.21,-20.19,0,*59
1514898034.79,13156,7.06,72348.8,-5.89,-18.35,-20.39,0,*53
1514898036.05,13157,7.0,72346.3,-5.87,-18.35,-20.35,0,*50
1514898037.31,13158,7.06,72348.0,-5.89,-18.07,-20.19,0,*5E
1514898038.57,13159,7.06,72350.5,-5.89,-17.97,-19.95,0,*57
1514898039.83,13160,7.06,72350.5,-5.89,-18.21,-20.19,0,*51
1514898041.09,13161,7.0,72346.8,-5.89,-18.21,-20.19,0,*50
1514898042.3,13162,7.06,72348.0,-5.87,-18.11,-20.09,0,*5F
1514898043.54,13163,7.06,72346.8,-5.87,-18.25,-20.19,0,*58
1514898044.77,13164,7.06,72350.8,-5.87,-18.25,-20.35,0,*51
1514898046.04,13165,7.06,72350.0,-5.89,-18.35,-20.39,0,*53
1514898047.27,13166,7.06,72354.5,-5.87,-18.21,-20.35,0,*57
1514898048.51,13167,7.0,72348.3,-5.89,-18.21,-20.25,0,*59
1514898049.77,13168,7.06,72350.5,-5.85,-17.93,-19.99,0,*51
1514898051.0,13169,7.06,72348.5,-5.89,-18.07,-20.09,0,*5D
1514898052.24,13170,7.06,72350.0,-5.89,-18.07,-20.09,0,*55
1514898053.48,13171,7.06,72346.8,-5.87,-18.35,-20.39,0,*58
1514898054.72,13172,7.0,72346.5,-5.87,-18.11,-20.19,0,*5F
1514898055.95,13173,7.0,72346.0,-5.87,-18.21,-20.35,0,*53
1514898057.19,13174,7.06,72350.3,-5.87,-17.93,-20.25,0,*53
1514898058.44,13175,7.06,72348.8,-5.85,-18.17,-20.15,0,*50
1514898059.68,13176,7.06,72348.8,-5.87,-18.21,-20.35,0,*56
1514898060.89,13177,7.0,72344.3,-5.87,-18.11,-20.25,0,*55
1514898062.14,13178,7.06,72348.0,-5.85,-18.07,-20.15,0,*5C
1514898063.38,13179,7.0,72344.8,-5.87,-17.97,-20.05,0,*58
1514898064.63,13180,7.06,72348.3,-5.85,-17.79,-19.91,0,*5B
1514898065.85,13181,7.06,72348.8,-5.87,-17.83,-19.95,0,*59
1514898067.08,13182,7.0,72346.8,-5.85,-17.87,-19.99,0,*50
1514898068.31,13183,7.0,72346.3,-5.85,-17.73,-19.99,0,*5A
1514898069.56,13184,7.06,72346.0,-5.85,-17.79,-19.99,0,*57
1514898070.79,13185,7.06,72348.3,-5.85,-17.73,-19.99,0,*5C
1514898072.01,13186,7.06,72350.5,-5.85,-17.73,-19.91,0,*57
1514898073.27,13187,7.0,72346.5,-5.85,-17.63,-19.91,0,*57
1514898074.49,13188,7.06,72350.8,-5.85,-17.73,-20.05,0,*5E
1514898075.72,13189,7.0,72344.5,-5.83,-17.79,-20.05,0,*53
1514898076.95,13190,7.0,72346.5,-5.83,-17.63,-19.99,0,*5F
1514898078.2,13191,7.06,72350.8,-5.85,-17.63,-20.05,0,*57
1514898079.43,13192,7.06,72348.5,-5.83,-17.63,-19.99,0,*5D
1514898080.71,13193,7.06,72348.0,-5.85,-17.59,-19.85,0,*5E
1514898081.94,13194,7.06,72350.8,-5.83,-17.59,-19.91,0,*5A
1514898083.17,13195,7.0,72346.8,-5.83,-17.59,-19.91,0,*5B
1514898084.39,13196,7.0,72344.3,-5.83,-17.63,-19.99,0,*59
1514898085.63,13197,7.06,72350.3,-5.83,-17.59,-20.05,0,*5E
1514898086.86,13198,7.06,72348.8,-5.83,-17.59,-20.05,0,*51
1514898088.08,13199,7.06,72346.3,-5.83,-17.73,-20.15,0,*59
1514898089.31,13200,7.0,72346.5,-5.83,-17.73,-20.15,0,*5A
1514898090.56,13201,7.06,72350.3,-5.83,-17.59,-20.15,0,*53
1514898091.79,13202,7.06,72346.0,-5.83,-17.59,-20.05,0,*51
1514898093.03,13203,7.06,72348.0,-5.79,-17.55,-19.99,0,*56
1514898094.28,13204,7.06,72350.3,-5.79,-17.59,-20.15,0,*53
1514898095.54,13205,7.0,72346.3,-5.77,-17.59,-20.09,0,*51
1514898096.75,13206,7.06,72348.8,-5.79,-17.69,-20.25,0,*51
1514898098.03,13207,7.0,72346.8,-5.77,-17.55,-20.15,0,*52
1514898099.28,13208,7.06,72346.8,-5.79,-17.55,-20.15,0,*53
1514898100.56,13209,7.0,72344.0,-5.77,-17.55,-20.15,0,*5C
1514898101.8,13210,7.06,72350.0,-5.79,-17.55,-20.09,0,*57
1514898103.08,13211,7.06,72350.8,-5.77,-17.45,-20.15,0,*54
1514898104.32,13212,7.0,72346.0,-5.79,-17.45,-20.09,0,*54
1514898105.58,13213,7.0,72344.5,-5.79,-17.55,-20.15,0,*59
1514898106.82,13214,7.0,72344.5,-5.79,-17.55,-20.25,0,*5D
1514898108.08,13215,7.06,72348.0,-5.77,-17.59,-20.25,0,*5E
1514898109.32,13216,7.06,72348.3,-5.79,-17.45,-20.09,0,*50
1514898110.6,13217,7.06,72350.8,-5.77,-17.45,-20.15,0,*52
1514898111.86,13218,7.06,72348.3,-5.77,-17.59,-20.29,0,*5F
1514898113.1,13219,7.06,72346.0,-5.79,-17.59,-20.43,0,*5C
1514898114.37,13220,7.06,72350.3,-5.77,-17.45,-20.25,0,*55
1514898115.63,13221,7.06,72346.3,-5.75,-17.41,-20.19,0,*5D
1514898116.85,13222,7.06,72350.8,-5.75,-17.49,-20.25,0,*59
1514898118.14,13223,7.06,72346.3,-5.73,-17.41,-20.19,0,*59
1514898119.35,13224,7.06,72350.5,-5.75,-17.49,-20.43,0,*5F
1514898120.64,13225,7.06,72346.8,-5.73,-17.55,-20.53,0,*54
1514898121.85,13226,7.0,72344.5,-5.75,-17.69,-20.59,0,*54
1514898123.07,13227,7.0,72344.3,-5.75,-17.49,-20.39,0,*51
1514898124.32,13228,7.06,72348.3,-5.75,-17.41,-20.39,0,*56
1514898125.56,13229,7.06,72348.0,-5.75,-17.41,-20.43,0,*5A
1514898126.83,13230,7.0,72344.5,-5.75,-17.55,-20.53,0,*56
1514898128.07,13231,7.0,72344.3,-5.75,-17.55,-20.59,0,*5D
1514898129.3,13232,7.06,72346.3,-5.75,-17.63,-20.69,0,*58
1514898130.56,13233,7.0,72344.5,-5.75,-17.55,-20.53,0,*55
1514898131.83,13234,7.0,72346.3,-5.73,-17.41,-20.43,0,*50
1514898133.07,13235,7.0,72344.5,-5.75,-17.49,-20.53,0,*5E
1514898134.3,13236,7.0,72346.3,-5.75,-17.63,-20.69,0,*5C
1514898135.53,13237,7.06,72348.8,-5.75,-17.63,-20.73,0,*56
1514898136.79,13238,7.0,72344.0,-5.73,-17.55,-20.69,0,*51
1514898138.04,13239,7.06,72350.0,-5.73,-17.55,-20.69,0,*50
1514898139.31,13240,7.0,72346.0,-5.73,-17.55,-20.73,0,*55
1514898140.54,13241,7.06,72350.0,-5.73,-17.49,-20.73,0,*59
1514898141.77,13242,7.0,72344.8,-5.75,-17.55,-20.69,0,*5A
1514898143.04,13243,7.0,72346.8,-5.73,-17.41,-20.59,0,*5B
1514898144.28,13244,7.06,72346.8,-5.73,-17.49,-20.73,0,*5C
1514898145.54,13245,7.06,72348.8,-5.73,-17.41,-20.69,0,*5E
1514898146.78,13246,7.0,72346.8,-5.73,-17.49,-20.69,0,*55
1514898148.0,13247,7.06,72346.3,-5.71,-17.35,-20.63,0,*57
1514898149.21,13248,7.06,72344.5,-5.71,-17.35,-20.69,0,*52
1514898150.43,13249,7.0,72346.0,-5.71,-17.35,-20.69,0,*53
1514898151.66,13250,7.06,72350.8,-5.69,-17.31,-20.63,0,*5C
1514898152.88,13251,7.0,72344.3,-5.71,-17.31,-20.63,0,*54
1514898154.09,13252,7.06,72350.0,-5.71,-17.31,-20.69,0,*5D
1514898155.33,13253,7.06,72348.3,-5.71,-17.25,-20.63,0,*53
1514898156.54,13254,7.06,72346.8,-5.71,-17.31,-20.63,0,*51
1514898157.75,13255,7.06,72348.5,-5.71,-17.31,-20.69,0,*5A
1514898159.02,13256,7.0,72346.5,-5.69,-17.21,-20.63,0,*5B
1514898160.25,13257,7.06,72344.0,-5.71,-17.31,-20.79,0,*59
1514898161.51,13258,7.06,72348.0,-5.69,-17.25,-20.73,0,*50
1514898162.77,13259,7.0,72342.0,-5.69,-17.21,-20.63,0,*54
1514898164.03,13260,7.06,72346.8,-5.69,-17.31,-20.79,0,*54
1514898165.27,13261,7.0,72344.8,-5.67,-17.25,-20.89,0,*51
1514898166.52,13262,7.06,72346.3,-5.67,-17.41,-20.89,0,*50
1514898167.72,13263,7.0,72346.0,-5.67,-17.31,-20.93,0,*5D
1514898169.01,13264,7.06,72346.8,-5.65,-17.45,-21.03,0,*53
1514898170.21,13265,7.06,72348.0,-5.67,-17.31,-20.93,0,*5B
1514898171.42,13266,7.06,72346.3,-5.67,-17.31,-20.93,0,*58
1514898172.68,13267,7.06,72344.3,-5.65,-17.41,-21.09,0,*5E
1514898173.93,13268,7.0,72344.5,-5.65,-17.31,-21.03,0,*5C
1514898175.16,13269,7.06,72344.5,-5.67,-17.41,-21.09,0,*52
1514898176.42,13270,7.06,72350.3,-5.65,-17.31,-21.03,0,*55
1514898177.71,13271,7.06,72348.0,-5.65,-17.41,-21.03,0,*53
1514898178.97,13272,7.06,72346.5,-5.67,-17.41,-21.03,0,*52
1514898180.23,13273,7.06,72346.5,-5.65,-17.41,-21.09,0,*5B
1514898181.48,13274,7.06,72350.0,-5.65,-17.31,-21.03,0,*51
1514898182.72,13275,7.06,72346.0,-5.63,-17.41,-21.17,0,*54
1514898183.96,13276,7.0,72346.0,-5.63,-17.41,-21.13,0,*53
1514898185.23,13277,7.06,72350.8,-5.67,-17.45,-21.23,0,*51
1514898186.52,13278,7.0,72344.0,-5.65,-17.59,-21.27,0,*55
1514898187.78,13279,7.06,72344.8,-5.63,-17.55,-21.23,0,*5A
1514898189.01,13280,7.06,72346.8,-5.65,-17.69,-21.39,0,*5E
1514898190.27,13281,7.0,72346.8,-5.63,-17.55,-21.33,0,*5C
1514898191.5,13282,7.06,72344.8,-5.63,-17.79,-21.47,0,*52
1514898192.71,13283,7.06,72348.8,-5.63,-17.49,-21.39,0,*59
1514898193.95,13284,7.06,72348.0,-5.63,-17.55,-21.39,0,*53
1514898195.21,13285,7.06,72344.5,-5.63,-17.55,-21.33,0,*58
1514898196.44,13286,7.06,72344.0,-5.63,-17.55,-21.39,0,*51
1514898197.7,13287,7.06,72346.8,-5.61,-17.63,-21.39,0,*57
1514898198.91,13288,7.06,72344.5,-5.63,-17.69,-21.47,0,*59
1514898200.12,13289,7.06,72344.3,-5.63,-17.69,-21.63,0,*5E
1514898201.35,13290,7.06,72344.5,-5.61,-17.69,-21.47,0,*52
1514898202.58,13291,7.0,72344.3,-5.63,-17.63,-21.47,0,*5B
1514898203.85,13292,7.06,72344.8,-5.63,-17.55,-21.23,0,*5F
1514898205.09,13293,7.06,72346.5,-5.63,-17.49,-21.23,0,*53
1514898206.35,13294,7.0,72346.0,-5.61,-17.55,-21.39,0,*50
1514898207.64,13295,7.06,72346.3,-5.61,-17.41,-21.33,0,*5E
1514898208.91,13296,7.06,72346.5,-5.61,-17.49,-21.33,0,*55
1514898210.14,13297,7.06,72346.8,-5.57,-17.73,-21.47,0,*5B
1514898211.37,13298,7.06,72348.8,-5.57,-17.73,-21.63,0,*52
1514898212.62,13299,7.0,72344.5,-5.57,-17.73,-21.57,0,*54
1514898213.86,13300,7.06,72344.3,-5.61,-17.83,-21.63,0,*58
1514898215.06,13301,7.06,72346.0,-5.63,-17.69,-21.63,0,*5F
1514898216.32,13302,7.0,72346.0,-5.61,-17.79,-21.63,0,*5F
1514898217.55,13303,7.06,72344.5,-5.57,-17.87,-21.63,0,*5A
1514898218.81,13304,7.06,72346.0,-5.57,-17.93,-21.77,0,*5D
1514898220.07,13305,7.06,72346.3,-5.57,-17.93,-21.77,0,*5C
1514898221.33,13306,7.06,72344.8,-5.57,-17.93,-21.77,0,*5F
1514898222.58,13307,7.0,72342.5,-5.57,-18.01,-21.73,0,*5E
1514898223.84,13308,7.06,72344.8,-5.57,-17.93,-21.77,0,*51
1514898225.1,13309,7.06,72346.8,-5.57,-17.93,-21.73,0,*54
1514898226.33,13310,7.06,72344.5,-5.55,-17.87,-21.67,0,*5E
1514898227.56,13311,7.06,72346.8,-5.57,-17.87,-21.73,0,*58
1514898228.79,13312,7.06,72348.0,-5.55,-17.97,-21.73,0,*58
1514898230.05,13313,7.06,72348.5,-5.57,-18.01,-21.73,0,*5B
1514898231.31,13314,7.06,72344.5,-5.57,-17.93,-21.63,0,*59
1514898232.57,13315,7.06,72346.8,-5.57,-18.01,-21.77,0,*59
1514898233.85,13316,7.06,72348.3,-5.57,-17.93,-21.87,0,*51
1514898235.11,13317,7.06,72348.0,-5.57,-18.01,-21.77,0,*5B
1514898236.32,13318,7.0,72346.0,-5.55,-17.87,-21.73,0,*53
1514898237.57,13319,7.06,72344.3,-5.55,-18.01,-21.83,0,*5C
1514898238.83,13320,7.06,72346.0,-5.55,-18.01,-21.83,0,*56
1514898240.06,13321,7.06,72344.8,-5.55,-17.97,-21.73,0,*58
1514898241.32,13322,7.06,72348.8,-5.55,-17.97,-21.57,0,*5D
1514898242.58,13323,7.06,72346.0,-5.55,-17.97,-21.83,0,*55
1514898243.84,13324,7.06,72344.8,-5.55,-17.97,-21.67,0,*58
1514898245.11,13325,7.06,72344.0,-5.53,-17.87,-21.67,0,*5E
1514898246.37,13326,7.0,72344.0,-5.53,-18.01,-21.73,0,*59
1514898247.63,13327,7.06,72344.5,-5.51,-17.97,-21.67,0,*5F
1514898248.9,13328,7.06,72344.5,-5.51,-17.93,-21.67,0,*54
1514898250.18,13329,7.06,72344.3,-5.53,-18.01,-21.83,0,*59
1514898251.45,13330,7.06,72346.0,-5.51,-17.97,-21.67,0,*59
1514898252.71,13331,7.06,72344.5,-5.51,-17.93,-21.67,0,*5C
1514898253.97,13332,7.06,72344.0,-5.51,-17.93,-21.67,0,*5F
1514898255.23,13333,7.06,72346.3,-5.53,-17.97,-21.73,0,*5D
1514898256.49,13334,7.06,72344.3,-5.51,-17.93,-21.67,0,*59
1514898257.76,13335,7.06,72344.0,-5.51,-17.93,-21.67,0,*58
1514898259.02,13336,7.06,72344.3,-5.51,-17.97,-21.67,0,*5F
1514898260.28,13337,7.06,72344.0,-5.49,-17.97,-21.73,0,*52
1514898261.54,13338,7.06,72346.5,-5.45,-18.01,-21.73,0,*51
1514898262.8,13339,7.06,72346.0,-5.45,-18.01,-21.73,0,*50
1514898264.06,13340,7.06,72344.0,-5.49,-18.07,-21.83,0,*5B
1514898265.34,13341,7.06,72344.5,-5.49,-17.97,-21.83,0,*5C
1514898266.63,13342,7.06,72344.0,-5.49,-17.97,-21.67,0,*55
1514898267.89,13343,7.06,72344.8,-5.45,-18.01,-21.73,0,*5D
1514898269.15,13344,7.06,72346.3,-5.45,-18.01,-21.73,0,*5A
1514898270.41,13345,7.06,72340.8,-5.45,-18.01,-21.77,0,*5F
1514898271.65,13346,7.06,72344.3,-5.45,-18.07,-21.77,0,*5A
1514898272.91,13347,7.06,72340.8,-5.45,-18.11,-21.87,0,*53
1514898274.15,13348,7.06,72346.0,-5.45,-18.11,-21.93,0,*59
1514898275.39,13349,7.06,72350.5,-5.45,-18.07,-21.77,0,*55
1514898276.66,13350,7.06,72344.8,-5.45,-18.07,-21.87,0,*52
1514898277.92,13351,7.06,72344.0,-5.45,-18.11,-21.87,0,*54
1514898279.16,13352,7.06,72344.5,-5.43,-18.07,-21.83,0,*52
1514898280.4,13353,7.06,72342.5,-5.45,-18.07,-21.77,0,*5E
1514898281.66,13354,7.06,72346.3,-5.45,-18.07,-21.87,0,*56
1514898282.93,13355,7.06,72344.3,-5.45,-18.07,-21.87,0,*57
1514898284.19,13356,7.06,72346.0,-5.45,-18.11,-21.87,0,*53
1514898285.43,13357,7.0,72342.5,-5.45,-18.25,-21.93,0,*50
1514898286.67,13358,7.06,72344.8,-5.45,-18.21,-21.93,0,*5B
1514898287.91,13359,7.06,72342.8,-5.43,-18.07,-21.87,0,*5D
1514898289.15,13360,7.06,72346.8,-5.43,-18.17,-21.87,0,*56
1514898290.36,13361,7.06,72344.5,-5.43,-18.21,-22.03,0,*5D
1514898291.56,13362,7.06,72340.5,-5.43,-18.17,-22.03,0,*5B
1514898292.77,13363,7.06,72346.5,-5.43,-18.21,-22.03,0,*5F
1514898294.01,13364,7.06,72344.5,-5.43,-18.31,-22.07,0,*5D
1514898295.25,13365,7.06,72340.0,-5.43,-18.31,-22.07,0,*5C
1514898296.54,13366,7.06,72340.8,-5.41,-18.35,-22.17,0,*58
1514898297.8,13367,7.06,72342.0,-5.41,-18.31,-22.07,0,*5C
1514898299.07,13368,7.06,72346.3,-5.41,-18.31,-22.03,0,*57
1514898300.36,13369,7.06,72344.5,-5.41,-18.31,-22.21,0,*56
1514898301.6,13370,7.06,72342.5,-5.39,-18.41,-22.17,0,*53
1514898302.8,13371,7.06,72340.5,-5.39,-18.45,-22.37,0,*54
1514898304.09,13372,7.06,72340.0,-5.41,-18.59,-22.47,0,*52
1514898305.32,13373,7.06,72342.5,-5.39,-18.55,-22.41,0,*56
1514898306.58,13374,7.06,72342.5,-5.39,-18.55,-22.31,0,*56
1514898307.81,13375,7.06,72344.3,-5.41,-18.49,-22.37,0,*53
1514898309.07,13376,7.06,72340.5,-5.41,-18.45,-22.31,0,*5A
1514898310.31,13377,7.06,72348.8,-5.39,-18.45,-22.31,0,*54
1514898311.57,13378,7.06,72340.5,-5.39,-18.55,-22.47,0,*5B
1514898312.8,13379,7.06,72344.8,-5.39,-18.59,-22.63,0,*50
1514898314.03,13380,7.06,72344.3,-5.39,-18.59,-22.63,0,*56
1514898315.27,13381,7.06,72342.3,-5.41,-18.79,-22.67,0,*5E
1514898316.48,13382,7.06,72340.8,-5.39,-18.73,-22.67,0,*58
1514898317.74,13383,7.06,72340.5,-5.41,-18.79,-22.77,0,*5D
1514898318.95,13384,7.06,72344.3,-5.39,-18.69,-22.63,0,*51
1514898320.19,13385,7.0,72340.3,-5.41,-18.65,-22.63,0,*53
1514898321.45,13386,7.06,72340.5,-5.41,-18.89,-22.83,0,*5C
1514898322.66,13387,7.06,72340.8,-5.39,-18.79,-22.83,0,*5D
1514898323.91,13388,7.06,72342.5,-5.39,-18.89,-22.77,0,*56
1514898325.17,13389,7.06,72340.5,-5.41,-18.89,-22.93,0,*52
1514898326.38,13390,7.06,72344.5,-5.39,-18.83,-22.87,0,*5A
1514898327.61,13391,7.06,72342.8,-5.39,-18.89,-22.97,0,*50
1514898328.85,13392,7.06,72340.5,-5.41,-18.79,-22.97,0,*53
1514898330.05,13393,7.06,72342.8,-5.39,-18.73,-22.87,0,*56
1514898331.29,13394,7.06,72340.3,-5.41,-18.79,-22.83,0,*50
1514898332.5,13395,7.06,72342.5,-5.39,-18.73,-22.97,0,*51
1514898333.71,13396,7.06,72340.5,-5.35,-18.79,-22.83,0,*51
1514898334.92,13397,7.06,72346.3,-5.35,-18.69,-22.83,0,*51
1514898336.13,13398,7.06,72340.8,-5.35,-18.69,-22.87,0,*5A
1514898337.36,13399,7.06,72340.8,-5.33,-18.69,-22.83,0,*59
1514898338.57,13400,7.06,72342.3,-5.35,-18.69,-22.93,0,*59
1514898339.81,13401,7.06,72342.0,-5.31,-18.79,-22.97,0,*59
1514898341.05,13402,7.06,72340.0,-5.35,-18.79,-23.03,0,*52
1514898342.26,13403,7.06,72340.5,-5.35,-18.79,-22.93,0,*5B
1514898343.47,13404,7.06,72340.0,-5.35,-18.79,-22.93,0,*5C
1514898344.75,13405,7.06,72342.3,-5.33,-18.89,-23.19,0,*57
1514898346.01,13406,7.06,72342.0,-5.33,-18.99,-23.23,0,*5C
1514898347.22,13407,7.06,72346.8,-5.35,-19.13,-23.39,0,*53
1514898348.48,13408,7.06,72340.8,-5.33,-18.99,-23.23,0,*52
1514898349.72,13409,7.06,72342.8,-5.35,-19.13,-23.49,0,*5A
1514898351.01,13410,7.06,72340.0,-5.33,-19.27,-23.49,0,*53
1514898352.29,13411,7.06,72340.0,-5.33,-19.31,-23.65,0,*5B
1514898353.58,13412,7.06,72340.5,-5.33,-19.27,-23.53,0,*5A
1514898354.84,13413,7.06,72344.5,-5.35,-19.27,-23.53,0,*5D
1514898356.07,13414,7.06,72338.3,-5.35,-19.03,-23.49,0,*57
1514898357.33,13415,7.06,72342.3,-5.33,-19.13,-23.49,0,*51
1514898358.57,13416,7.06,72340.8,-5.31,-19.37,-23.59,0,*57
1514898359.82,13417,7.06,72340.3,-5.31,-19.13,-23.59,0,*50
1514898361.09,13418,7.06,72340.8,-5.31,-19.13,-23.49,0,*5E
1514898362.33,13419,7.06,72340.8,-5.29,-19.23,-23.59,0,*54
1514898363.59,13420,7.06,72340.8,-5.31,-19.23,-23.59,0,*57
1514898364.85,13421,7.06,72340.8,-5.31,-19.37,-23.65,0,*5C
1514898366.15,13422,7.06,72340.3,-5.31,-19.27,-23.65,0,*5E
1514898367.37,13423,7.06,72342.5,-5.29,-19.37,-23.75,0,*56
1514898368.66,13424,7.06,72340.3,-5.31,-19.41,-23.85,0,*56
1514898369.92,13425,7.06,72340.5,-5.31,-19.51,-23.95,0,*57
1514898371.18,13426,7.06,72340.5,-5.29,-19.41,-23.85,0,*5D
1514898372.42,13427,7.06,72340.8,-5.29,-19.51,-24.11,0,*57
1514898373.68,13428,7.06,72340.3,-5.31,-19.51,-24.11,0,*51
1514898374.92,13429,7.06,72342.8,-5.29,-19.51,-23.99,0,*5E
1514898376.15,13430,7.06,72340.8,-5.29,-19.51,-24.15,0,*55
1514898377.41,13431,7.06,72342.5,-5.27,-19.47,-23.95,0,*52
1514898378.64,13432,7.06,72340.5,-5.27,-19.37,-23.89,0,*5B
1514898379.9,13433,7.06,72342.0,-5.27,-19.37,-23.95,0,*57
1514898381.14,13434,7.06,72340.3,-5.29,-19.51,-24.11,0,*55
1514898382.37,13435,7.06,72340.8,-5.27,-19.51,-24.05,0,*5F
1514898383.63,13436,7.06,72340.5,-5.27,-19.47,-23.95,0,*55
1514898384.86,13437,7.06,72340.0,-5.27,-19.47,-24.05,0,*5A
1514898386.14,13438,7.06,72340.3,-5.27,-19.61,-24.11,0,*54
1514898387.38,13439,7.06,72340.8,-5.25,-19.51,-24.11,0,*54
1514898388.67,13440,7.06,72342.0,-5.27,-19.61,-24.25,0,*5C
1514898389.91,13441,7.06,72346.5,-5.21,-19.65,-24.31,0,*5A
1514898391.17,13442,7.06,72338.5,-5.25,-19.65,-24.25,0,*58
1514898392.42,13443,7.06,72340.0,-5.25,-19.51,-24.21,0,*5A
1514898393.63,13444,7.06,72342.8,-5.25,-19.71,-24.51,0,*58
1514898394.84,13445,7.06,72342.8,-5.21,-19.95,-24.51,0,*57
1514898396.05,13446,7.06,72342.5,-5.21,-19.91,-24.51,0,*50
1514898397.28,13447,7.06,72344.3,-5.21,-20.05,-24.71,0,*54
1514898398.51,13448,7.06,72340.8,-5.21,-20.05,-24.67,0,*5C
1514898399.74,13449,7.06,72342.8,-5.21,-20.09,-24.87,0,*5F
1514898400.99,13450,7.06,72344.3,-5.21,-20.35,-24.87,0,*58
1514898402.21,13451,7.06,72340.0,-5.21,-20.05,-24.67,0,*54
1514898403.44,13452,7.06,72340.0,-5.21,-20.09,-24.83,0,*51
1514898404.7,13453,7.06,72340.5,-5.19,-20.09,-24.71,0,*56
1514898405.95,13454,7.06,72344.8,-5.21,-20.19,-24.87,0,*52
1514898407.19,13455,7.06,72340.0,-5.21,-20.25,-24.87,0,*5C
1514898408.39,13456,7.06,72342.5,-5.21,-20.25,-24.97,0,*5E
1514898409.63,13457,7.06,72340.3,-5.21,-20.25,-25.03,0,*53
1514898410.84,13458,7.06,72340.5,-5.21,-20.39,-25.19,0,*5A
1514898412.05,13459,7.06,72346.5,-5.21,-20.39,-25.13,0,*51
1514898413.31,13460,7.06,72340.0,-5.19,-20.39,-25.03,0,*51
1514898414.54,13461,7.06,72342.8,-5.21,-20.35,-24.97,0,*5B
1514898415.8,13462,7.06,72340.8,-5.21,-20.19,-24.83,0,*53
1514898417.03,13463,7.06,72342.3,-5.21,-20.05,-24.71,0,*52
1514898418.26,13464,7.06,72342.3,-5.21,-20.09,-24.83,0,*54
1514898419.5,13465,7.06,72340.8,-5.19,-20.09,-24.67,0,*54
1514898420.74,13466,7.06,72342.8,-5.21,-19.95,-24.67,0,*53
1514898421.97,13467,7.06,72340.0,-5.19,-19.91,-24.51,0,*58
1514898423.22,13468,7.06,72340.5,-5.19,-19.81,-24.51,0,*56
1514898424.48,13469,7.06,72340.3,-5.19,-20.09,-24.71,0,*5F
1514898425.7,13470,7.06,72336.8,-5.17,-20.35,-24.97,0,*5E
1514898426.9,13471,7.06,72340.0,-5.17,-20.29,-24.97,0,*52
1514898428.12,13472,7.06,72340.5,-5.17,-20.35,-24.97,0,*5C
1514898429.32,13473,7.06,72336.8,-5.17,-20.05,-24.61,0,*57
1514898430.53,13474,7.06,72340.8,-5.17,-19.99,-24.57,0,*5A
1514898431.73,13475,7.0,72338.8,-5.17,-20.09,-24.57,0,*58
1514898432.96,13476,7.06,72340.0,-5.17,-20.09,-24.71,0,*5F
1514898434.15,13477,7.06,72340.5,-5.17,-20.29,-24.93,0,*50
1514898435.35,13478,7.06,72340.5,-5.13,-20.29,-24.93,0,*5B
1514898436.58,13479,7.06,72338.5,-5.13,-20.25,-24.71,0,*5A
1514898437.8,13480,7.06,72338.8,-5.11,-20.29,-24.93,0,*5E
1514898439.0,13481,7.06,72340.3,-5.13,-20.29,-24.93,0,*5D
1514898440.25,13482,7.0,72336.5,-5.11,-20.29,-24.87,0,*59
1514898441.5,13483,7.06,72340.5,-5.11,-20.39,-24.87,0,*59
1514898442.76,13484,7.06,72344.0,-5.11,-20.39,-24.87,0,*5E
1514898443.99,13485,7.06,72342.3,-5.11,-20.39,-24.93,0,*5A
1514898445.2,13486,7.06,72342.8,-5.09,-20.39,-24.97,0,*54
1514898446.45,13487,7.06,72342.3,-5.11,-20.39,-24.87,0,*5D
1514898447.68,13488,7.06,72340.8,-5.07,-20.29,-24.77,0,*5B
1514898448.91,13489,7.06,72340.8,-5.11,-20.39,-24.77,0,*5C
1514898450.16,13490,7.06,72342.0,-5.09,-20.35,-24.87,0,*5E
1514898451.42,13491,7.06,72340.5,-5.11,-20.39,-24.71,0,*53
1514898452.64,13492,7.06,72340.3,-5.09,-20.25,-24.67,0,*53
1514898453.87,13493,7.06,72346.0,-5.11,-20.29,-24.61,0,*51
1514898455.07,13494,7.06,72340.0,-5.09,-20.25,-24.57,0,*56
1514898456.3,13495,7.06,72342.5,-5.09,-20.19,-24.51,0,*5E
1514898457.54,13496,7.06,72340.3,-5.07,-20.15,-24.31,0,*59
1514898458.8,13497,7.06,72342.5,-5.07,-20.19,-24.51,0,*52
1514898460.03,13498,7.06,72342.8,-5.05,-20.19,-24.47,0,*58
1514898461.23,13499,7.06,72344.5,-5.05,-20.29,-24.51,0,*5D
1514898462.45,13500,7.06,72340.8,-5.07,-20.29,-24.51,0,*5E
1514898463.7,13501,7.06,72340.3,-5.05,-20.19,-24.41,0,*5F
1514898464.93,13502,7.06,72340.5,-5.05,-20.19,-24.51,0,*5D
1514898466.13,13503,7.06,72342.8,-5.05,-20.29,-24.51,0,*5F
1514898467.33,13504,7.06,72338.8,-5.05,-20.29,-24.47,0,*5F
1514898468.55,13505,7.06,72342.8,-5.03,-20.29,-24.47,0,*58
1514898469.75,13506,7.06,72340.5,-5.05,-20.29,-24.51,0,*5A
1514898471.0,13507,7.06,72342.5,-5.07,-20.19,-24.31,0,*5C
1514898472.26,13508,7.06,72342.5,-5.05,-20.19,-24.41,0,*56
1514898473.51,13509,7.06,72342.8,-5.03,-20.25,-24.41,0,*5E
1514898474.78,13510,7.06,72344.8,-5.03,-20.15,-24.25,0,*57
1514898476.04,13511,7.06,72342.5,-5.03,-19.99,-24.21,0,*5C
1514898477.32,13512,7.06,72340.3,-5.03,-20.15,-24.21,0,*51
1514898478.58,13513,7.06,72340.3,-5.03,-19.99,-24.21,0,*5E
1514898479.83,13514,7.06,72340.3,-5.03,-20.09,-24.11,0,*59
1514898481.05,13515,7.06,72346.3,-5.01,-19.95,-23.95,0,*5E
1514898482.28,13516,7.06,72344.0,-5.01,-19.85,-24.05,0,*52
1514898483.49,13517,7.06,72342.8,-5.01,-20.09,-24.11,0,*58
1514898484.72,13518,7.06,72342.3,-5.01,-19.85,-24.05,0,*5C
1514898485.96,13519,7.06,72342.3,-5.03,-19.81,-23.79,0,*57
1514898487.19,13520,7.06,72344.5,-5.01,-19.85,-23.79,0,*5B
1514898488.43,13521,7.06,72340.8,-4.97,-19.81,-23.89,0,*5F
1514898489.69,13522,7.06,72346.0,-4.97,-19.91,-23.85,0,*51
1514898490.93,13523,7.06,72340.3,-4.97,-19.51,-23.59,0,*5D
1514898492.14,13524,7.06,72346.3,-4.95,-19.51,-23.43,0,*53
1514898493.37,13525,7.06,72344.0,-4.95,-19.51,-23.53,0,*53
1514898494.58,13526,7.06,72344.0,-4.95,-19.47,-23.43,0,*56
1514898495.79,13527,7.06,72342.5,-4.95,-19.47,-23.43,0,*57
1514898497.03,13528,7.06,72340.0,-4.95,-19.37,-23.33,0,*58
1514898498.3,13529,7.06,72342.5,-4.91,-19.27,-23.19,0,*54
1514898499.58,13530,7.06,72342.8,-4.93,-19.31,-23.29,0,*5A
1514898500.85,13531,7.06,72342.8,-4.91,-19.31,-23.19,0,*5A
1514898502.14,13532,7.06,72346.3,-4.93,-19.31,-23.19,0,*5B
1514898503.42,13533,7.06,72344.8,-4.93,-19.31,-23.29,0,*59
1514898504.69,13534,7.06,72344.3,-4.91,-19.31,-23.19,0,*5F
1514898505.98,13535,7.06,72342.8,-4.93,-19.31,-23.19,0,*5C